Wind_Speed
6 6 6 7 7 7 8 10 11 13 13 13 15 16 16 17 17 18 19 19 19 19 19 20 21 21 21 22 23 22 22 23 23 24 25 26 26 26 26 27 28 29 29
6 6 6 7 8 8 9 10 11 12 13 14 14 16 17 17 18 18 19 19 20 19 20 21 22 22 22 23 24 24 24 24 25 26 27 27 27 28 29 29 30 31 32
6 6 7 8 8 9 10 10 12 12 13 15 16 16 17 18 18 19 19 19 20 20 21 22 23 24 24 24 25 26 26 26 27 27 27 28 29 31 31 32 33 33 34
8 7 8 8 9 9 10 11 13 14 15 15 16 16 17 18 19 19 20 21 21 22 22 23 24 26 26 26 27 27 28 28 28 28 29 30 31 31 32 33 34 34 35
10 9 10 10 10 10 11 12 13 14 15 16 16 17 17 18 19 20 22 22 23 24 24 25 25 26 26 27 28 28 29 29 29 30 30 31 32 33 33 34 35 36 37
11 11 12 12 12 12 13 13 14 15 16 17 18 18 19 20 20 21 23 24 25 25 26 26 26 26 27 27 27 28 28 29 29 30 31 32 32 33 33 34 35 36 36
14 13 14 14 14 14 15 16 16 17 18 18 19 20 20 20 21 22 24 25 26 26 27 28 27 28 28 27 27 27 28 29 30 30 31 32 32 32 33 33 34 35 36
15 16 16 16 16 16 16 16 17 17 18 18 19 20 21 21 22 22 23 24 24 25 26 27 28 29 30 29 29 29 28 28 29 30 31 32 32 33 33 33 34 35 37
17 17 18 18 18 17 17 17 18 19 19 19 20 20 21 22 22 23 24 25 26 26 27 28 29 29 29 29 29 28 28 29 29 30 30 31 31 32 33 35 35 37 38
18 18 18 18 19 19 18 19 20 20 20 21 21 22 23 24 24 25 25 25 25 26 27 27 27 28 29 29 28 28 29 29 30 30 32 32 33 34 35 36 37 38 39
20 20 19 20 19 19 20 20 21 22 22 23 24 24 24 25 25 26 26 26 26 26 26 27 28 28 29 28 28 29 29 29 31 32 33 34 35 36 36 36 37 38 39
22 22 22 21 21 21 21 22 22 23 24 24 24 25 25 26 26 27 27 27 26 27 27 28 28 28 29 29 29 29 30 31 32 32 33 35 35 36 36 36 37 38 38
25 24 24 23 23 24 24 24 24 25 25 25 25 25 26 26 27 28 28 29 29 29 29 29 28 29 29 30 30 31 32 32 33 33 34 35 35 35 35 36 36 37 37
27 26 25 26 26 26 26 26 26 26 26 27 26 27 27 28 28 28 29 29 29 29 30 29 30 30 30 30 30 31 32 33 33 33 34 34 34 34 35 35 36 36 37
29 28 28 28 28 28 28 28 28 28 28 28 29 29 29 29 29 30 29 29 29 30 30 30 30 30 30 30 31 32 32 32 32 33 32 33 34 34 35 36 36 36 37
30 30 30 30 30 30 30 30 30 30 30 30 30 31 31 31 31 31 30 30 30 30 30 30 30 30 31 31 31 31 31 31 32 32 33 33 34 34 35 35 35 36 37
32 32 33 32 32 31 32 32 31 31 31 31 31 32 32 32 32 32 31 31 31 30 30 30 30 30 30 30 30 30 31 32 33 33 34 35 35 35 35 35 35 35 36
34 34 34 34 34 33 33 32 32 32 32 32 32 32 32 32 32 32 32 31 31 30 30 31 31 31 30 31 31 32 33 33 34 35 35 35 35 34 34 34 34 34 35
35 35 35 35 34 33 32 32 31 32 32 32 31 31 32 32 32 32 32 31 31 31 31 30 30 30 31 32 33 33 34 34 35 35 35 35 34 33 33 33 33 34 34
35 35 35 34 33 32 32 32 32 32 32 31 31 31 32 32 32 32 31 30 30 30 29 29 30 30 31 32 33 33 34 34 35 34 34 34 33 33 33 33 34 34 34
34 34 33 32 32 31 31 31 31 31 31 31 31 31 30 30 30 30 30 29 29 29 29 30 30 31 31 31 32 33 34 34 34 34 34 33 33 33 33 33 34 34 33
33 32 32 32 32 31 31 31 30 30 30 30 30 30 30 30 30 30 29 29 29 29 29 30 31 32 32 32 32 33 34 34 34 33 33 32 32 32 33 33 33 33 32
30 30 30 31 30 30 30 29 29 28 29 29 29 29 29 29 29 29 29 29 30 30 30 31 32 32 33 33 33 34 33 33 32 32 31 31 32 33 33 33 32 32 30
28 28 28 28 28 27 27 27 27 27 27 27 27 28 28 27 27 27 28 28 29 30 30 31 32 33 33 33 32 32 31 31 31 31 31 32 32 32 32 31 30 29 29
26 26 26 26 25 25 25 25 25 25 24 24 25 25 25 25 25 26 27 28 29 29 30 31 32 32 31 31 31 31 31 31 31 31 31 31 31 30 30 29 28 28 28
24 24 23 23 22 22 22 22 22 22 23 24 24 24 25 25 26 27 27 27 28 28 29 29 30 30 30 31 30 30 30 29 29 29 29 29 29 29 28 28 28 28 29
Wind_Direction
298 286 267 257 254 253 247 243 243 244 245 249 251 252 253 252 253 255 258 258 258 260 261 262 261 262 263 263 262 262 264 265 266 268 270 271 273 275 276 277 278 279 280
301 290 273 263 257 252 251 249 248 248 250 255 259 256 254 255 255 258 260 260 259 260 263 264 262 263 265 264 263 263 264 265 267 269 271 272 272 273 275 277 279 279 281
301 293 283 270 262 258 256 256 255 257 258 261 263 259 258 258 258 259 262 262 261 263 264 264 264 265 267 266 265 265 265 266 268 270 272 273 274 275 276 278 280 280 281
293 286 284 277 270 269 270 264 262 262 262 264 266 264 263 263 262 262 263 264 264 266 265 263 266 268 268 268 269 269 268 268 268 270 274 275 277 277 279 280 282 283 283
290 284 283 280 275 273 272 271 269 270 268 265 266 267 265 266 266 266 266 265 266 268 269 268 269 270 269 270 270 271 271 271 271 273 275 277 279 280 280 281 283 284 285
288 285 284 281 276 274 275 274 273 272 271 269 267 267 268 268 268 268 268 267 267 269 271 272 271 271 271 272 272 272 272 272 274 275 277 278 280 281 281 282 285 286 288
290 287 286 285 281 276 275 275 274 274 274 275 273 271 271 273 273 272 271 271 270 271 272 272 272 273 275 275 274 273 273 274 275 277 278 280 282 282 284 287 288 289 290
290 287 285 283 281 278 276 276 276 277 277 277 276 274 273 275 275 276 276 275 275 273 272 271 272 274 278 278 277 276 275 277 278 280 282 283 284 285 286 287 289 290 291
290 288 283 281 279 279 279 278 278 279 278 277 277 277 277 278 278 278 277 277 275 276 276 275 274 277 278 278 279 279 279 279 280 279 282 285 287 288 289 289 290 292 293
292 291 285 281 280 280 281 281 280 280 281 280 280 279 279 279 280 281 279 277 277 278 278 278 278 278 277 277 278 280 280 280 280 281 284 286 288 289 290 290 292 293 295
291 291 286 283 282 283 284 285 283 283 282 282 281 281 280 280 280 280 281 280 280 279 278 279 279 278 278 279 279 280 280 281 284 285 286 288 289 290 291 292 293 295 296
290 289 285 281 280 282 283 283 284 284 283 283 282 280 279 279 281 281 281 280 279 278 278 279 281 280 279 278 279 280 281 282 285 286 288 290 291 291 293 295 296 296 298
289 287 283 280 280 281 281 282 283 283 282 282 282 281 281 281 281 281 281 280 277 277 278 279 280 281 281 279 279 280 282 284 286 288 289 290 291 292 295 297 297 298 299
285 285 284 283 282 281 282 282 281 281 280 280 280 280 280 281 282 282 282 280 278 277 278 279 280 281 280 280 281 281 282 285 287 289 291 292 293 295 297 298 299 299 301
283 283 284 283 282 282 282 282 281 279 278 277 278 279 280 281 281 281 281 280 278 277 278 279 280 279 280 281 281 281 283 286 287 288 291 293 295 296 297 298 299 300 300
282 281 282 282 282 282 282 281 281 279 277 277 277 277 278 279 280 281 279 279 278 277 278 279 280 280 279 281 282 284 285 287 289 290 293 294 296 297 297 298 299 300 301
281 282 281 280 281 281 279 279 279 278 277 276 276 277 278 278 279 279 277 277 277 277 277 278 279 281 281 282 284 285 287 289 290 292 293 295 296 296 297 298 300 301 302
281 281 281 279 279 279 279 277 278 278 277 277 277 276 275 276 277 277 276 276 277 277 278 279 279 280 281 283 284 286 288 289 291 293 294 295 296 296 297 298 300 301 302
280 280 280 280 279 278 277 277 276 276 276 275 275 275 274 275 276 276 275 275 275 276 277 277 279 280 281 283 285 287 289 290 292 293 293 293 294 296 297 298 300 301 302
280 280 279 278 277 277 277 276 275 274 274 273 273 274 274 274 274 275 275 275 276 276 277 278 280 281 283 284 286 288 289 291 292 292 293 294 294 296 297 298 298 300 301
280 279 277 276 276 276 275 275 273 273 273 273 272 273 273 274 274 273 273 275 276 276 277 278 280 282 284 285 287 288 289 291 291 291 292 293 294 295 297 298 298 299 300
278 276 275 274 275 275 274 273 273 272 272 271 272 272 272 272 272 270 270 273 275 276 276 279 281 282 284 287 289 290 290 290 290 291 291 292 293 294 296 297 298 298 299
275 274 274 274 274 274 273 272 271 271 271 270 271 271 271 271 270 270 271 273 275 276 277 281 284 285 287 289 289 289 290 290 289 290 291 291 292 294 295 297 298 299 300
274 273 273 273 273 273 272 270 270 270 271 271 271 271 271 271 272 273 275 276 278 279 280 282 285 287 288 288 290 290 290 291 291 292 292 292 293 295 296 296 298 299 300
274 273 272 271 271 271 269 268 269 270 271 271 273 273 273 274 276 277 279 280 282 283 285 286 286 287 288 289 290 291 291 291 292 292 292 293 294 295 296 297 298 299 299
274 272 271 270 270 269 269 269 270 271 273 274 275 275 276 278 280 281 282 284 285 287 288 289 289 290 290 290 290 291 291 292 292 293 293 293 293 294 296 297 298 298 298
Height
5867 5867 5866 5866 5867 5868 5869 5869 5871 5872 5873 5873 5874 5874 5875 5876 5877 5877 5878 5878 5879 5880 5880 5880 5880 5880 5880 5880 5880 5880 5880 5880 5880 5879 5878 5878 5877 5876 5875 5874 5873 5871 5869
5866 5865 5865 5865 5865 5866 5867 5868 5868 5869 5870 5870 5870 5871 5871 5872 5872 5873 5873 5874 5874 5874 5875 5875 5875 5875 5875 5875 5874 5874 5874 5874 5874 5873 5872 5872 5871 5869 5868 5867 5865 5864 5862
5865 5864 5864 5864 5864 5864 5864 5865 5866 5866 5866 5866 5866 5866 5867 5867 5867 5868 5868 5869 5869 5869 5869 5869 5869 5869 5869 5869 5868 5868 5868 5868 5868 5867 5866 5865 5864 5862 5861 5860 5858 5856 5854
5863 5863 5863 5862 5862 5861 5861 5862 5862 5862 5862 5863 5862 5862 5862 5863 5863 5863 5864 5864 5864 5864 5863 5863 5863 5863 5863 5862 5862 5862 5861 5861 5860 5860 5859 5858 5856 5855 5853 5852 5850 5848 5846
5861 5861 5860 5860 5859 5859 5859 5858 5858 5858 5858 5858 5858 5858 5858 5858 5858 5858 5858 5858 5858 5858 5858 5857 5857 5856 5856 5856 5855 5854 5854 5854 5853 5852 5851 5850 5849 5847 5845 5843 5841 5839 5836
5859 5858 5857 5857 5856 5856 5855 5855 5855 5854 5854 5854 5854 5854 5853 5853 5853 5853 5853 5852 5852 5852 5851 5850 5850 5850 5849 5849 5848 5847 5847 5846 5845 5844 5844 5842 5841 5839 5837 5835 5833 5831 5828
5856 5855 5854 5853 5853 5852 5852 5851 5851 5850 5850 5849 5849 5849 5848 5848 5848 5847 5847 5846 5845 5845 5844 5844 5843 5843 5842 5841 5840 5840 5839 5839 5838 5837 5836 5834 5833 5831 5829 5826 5824 5822 5819
5852 5851 5851 5850 5849 5848 5848 5847 5847 5846 5846 5845 5844 5844 5843 5843 5842 5841 5840 5839 5839 5838 5838 5837 5837 5836 5835 5834 5833 5832 5832 5831 5830 5828 5827 5826 5824 5822 5820 5818 5815 5813 5810
5847 5846 5845 5845 5844 5844 5843 5842 5842 5841 5841 5840 5839 5838 5838 5837 5836 5835 5834 5833 5832 5832 5831 5831 5830 5829 5828 5827 5826 5825 5824 5823 5822 5820 5819 5817 5815 5813 5811 5809 5807 5803 5800
5842 5841 5839 5839 5839 5839 5838 5837 5836 5836 5835 5834 5833 5833 5832 5831 5830 5828 5827 5826 5825 5825 5824 5823 5823 5822 5821 5819 5819 5817 5816 5815 5814 5812 5811 5809 5807 5805 5802 5800 5797 5794 5791
5837 5836 5835 5834 5834 5833 5832 5831 5831 5830 5829 5828 5827 5826 5825 5824 5823 5822 5821 5820 5819 5818 5817 5816 5815 5814 5813 5812 5811 5810 5808 5807 5806 5804 5802 5800 5798 5796 5793 5790 5787 5784 5781
5832 5831 5829 5828 5828 5827 5826 5826 5825 5823 5822 5821 5820 5819 5819 5817 5816 5815 5814 5812 5811 5811 5810 5809 5808 5806 5805 5804 5803 5802 5801 5799 5797 5795 5793 5791 5789 5786 5783 5780 5777 5774 5771
5825 5824 5822 5822 5821 5821 5820 5819 5818 5817 5816 5815 5813 5812 5811 5810 5809 5807 5806 5805 5804 5803 5802 5801 5800 5799 5797 5796 5795 5794 5792 5791 5789 5787 5784 5782 5780 5777 5774 5771 5768 5765 5761
5817 5816 5815 5815 5814 5814 5813 5812 5811 5809 5808 5807 5806 5805 5804 5803 5801 5800 5798 5797 5796 5795 5794 5793 5792 5791 5790 5788 5787 5785 5784 5782 5780 5778 5775 5773 5771 5768 5765 5762 5758 5755 5752
5809 5808 5808 5807 5806 5806 5805 5804 5803 5802 5801 5800 5799 5797 5796 5795 5793 5792 5790 5789 5788 5787 5786 5785 5784 5783 5781 5780 5778 5777 5775 5773 5771 5769 5767 5764 5761 5758 5756 5753 5749 5746 5742
5801 5800 5799 5798 5797 5797 5796 5795 5794 5793 5792 5791 5790 5789 5787 5786 5784 5783 5782 5780 5779 5778 5777 5776 5775 5774 5772 5771 5770 5768 5766 5765 5762 5760 5758 5755 5752 5749 5746 5743 5740 5736 5733
5792 5791 5790 5789 5788 5787 5786 5785 5785 5784 5783 5782 5780 5779 5778 5777 5776 5774 5773 5772 5771 5770 5769 5768 5767 5766 5764 5762 5761 5760 5758 5756 5754 5751 5749 5746 5743 5740 5737 5733 5730 5727 5724
5782 5782 5780 5779 5778 5777 5776 5775 5774 5774 5773 5772 5771 5769 5768 5767 5766 5765 5764 5763 5762 5761 5760 5759 5758 5757 5756 5754 5753 5751 5749 5747 5745 5742 5739 5736 5733 5730 5727 5724 5721 5718 5715
5772 5771 5770 5769 5768 5767 5766 5765 5764 5763 5762 5761 5760 5759 5758 5757 5756 5756 5754 5754 5753 5752 5751 5750 5749 5748 5747 5745 5744 5742 5740 5737 5735 5732 5730 5727 5724 5721 5718 5715 5712 5709 5706
5761 5760 5759 5758 5757 5756 5756 5755 5754 5753 5752 5751 5750 5750 5749 5748 5747 5746 5745 5745 5744 5743 5742 5741 5740 5739 5737 5736 5734 5732 5730 5728 5725 5722 5720 5717 5715 5712 5709 5706 5703 5700 5697
5751 5750 5749 5748 5747 5746 5745 5744 5744 5743 5742 5741 5741 5740 5739 5738 5738 5737 5736 5736 5735 5734 5733 5733 5731 5730 5728 5726 5725 5723 5720 5718 5715 5713 5711 5708 5706 5703 5700 5697 5694 5691 5688
5740 5739 5738 5737 5737 5736 5735 5734 5734 5733 5733 5732 5731 5730 5729 5729 5728 5728 5727 5727 5726 5725 5725 5724 5722 5721 5719 5717 5715 5713 5710 5708 5706 5703 5701 5699 5696 5694 5691 5688 5685 5682 5679
5730 5729 5728 5727 5727 5726 5725 5725 5724 5724 5723 5723 5722 5721 5721 5720 5719 5719 5718 5718 5717 5716 5715 5714 5713 5711 5709 5707 5705 5703 5701 5698 5696 5694 5692 5690 5687 5685 5682 5679 5677 5674 5671
5720 5719 5719 5718 5717 5717 5716 5716 5716 5715 5715 5714 5714 5713 5712 5712 5711 5710 5710 5709 5708 5707 5706 5705 5703 5701 5699 5697 5695 5693 5691 5689 5687 5685 5682 5680 5678 5676 5673 5670 5668 5665 5662
5711 5710 5710 5710 5709 5709 5708 5708 5708 5707 5707 5706 5705 5705 5705 5704 5703 5702 5701 5700 5699 5698 5696 5695 5693 5691 5689 5688 5686 5684 5682 5680 5677 5675 5673 5671 5669 5666 5664 5662 5659 5657 5654
5703 5702 5702 5702 5701 5701 5701 5701 5700 5700 5699 5698 5698 5697 5697 5696 5695 5694 5693 5692 5690 5689 5687 5685 5684 5682 5680 5678 5676 5674 5672 5670 5668 5666 5664 5662 5660 5658 5656 5653 5651 5648 5646